Torna al catalogo

STARLINK-3388

AttivoComunicazioniVLEO
NORAD 51131·PAYLOAD·🇺🇸 United States

Lanciato Jan 19, 2022 da Cape Canaveral Space Force Station

Loading…

Prossimi Passaggi (prossime 24 ore)

TLE

AggiornatoSource: CelesTrak SupGP

Epoca: Sep 15, 2026, 01:57 UTC

1 51131C 22005AD  26258.08173611  .00023991  00000+0  77160-3 0  2585
2 51131  53.1575 155.0206 0001324  88.1815  40.4553 15.31684571    12

Traccia STARLINK-3388 in tempo reale con AllMySat

Download on the App Store